User: anonymous   Login
Location: Sandbanks Provincial Park
(47.6073°N, 57.6428°W)
Time: 14:28:22
(UTC-02:-30)
Language:

Cosmos 2034 Rocket - Orbit

View from above orbital plane
View from above orbital plane
View from above satellite
View from above satellite

Ground track
Ground track

The orbit data is extracted from the following two-line orbital elements,

1 20150U 89059B   16240.21921875  .00000042  00000-0  27159-4 0  9991
2 20150  82.9415 312.1715 0029430  26.0303   0.6048 13.75619388359973
Epoch (UTC): 27 August 2016 05:15:40
Eccentricity: 0.0029430
inclination: 82.9415°
perigee height: 958 km
apogee height: 1001 km
right ascension of ascending node: 312.1715°
argument of perigee: 26.0303°
revolutions per day: 13.75619388
mean anomaly at epoch: 0.6048°
orbit number at epoch: 35997

The dashed part of the orbit path shows where the satellite is in the earth's shadow,  

DLR